Location: Dürabuch
(48.2640°N, 11.2185°E)
Time: 21:41:52
(UTC+00:00)

Cosmos 2333 - Pass Details

Date: 23 May 2024
Orbit: 829 x 865 km, 70.9° (Epoch: 14 June)

Event Time Altitude Azimuth Distance (km) Brightness Sun altitude
Rises 01:42:45 0° 332° (NNW) 3,425 7.7 -13.3°
Reaches altitude 10° 01:45:12 10° 334° (NNW) 2,491 7.0 -13.0°
Maximum altitude 01:50:57 80° 61° (ENE) 877 4.4 -12.5°
Drops below altitude 10° 01:56:43 10° 149° (SSE) 2,496 6.5 -11.9°
Sets 01:59:10 0° 151° (SSE) 3,431 7.2 -11.6°
